This demonstration page uses our WeatherBlox Daily Observations layout. Learn more.

36.17497, -115.13722

Hourly Observations for May 12, 2015

Temp ( °F °C ) Dew Point ( °F °C ) Humidity (%) Winds ( mph kmh ) Pressure ( in mb ) Visibility ( mi km ) Precip ( " mm )
12:53 am 00:53 Clear 75 23.9 24 -4.4 15 15 WSW 8 13 29.73 1007 10 16.0934 0 0
1:53 am 01:53 Clear 74 23.3 24 -4.4 15 15 SW 8 13 29.72 1007 10 16.0934 0 0
2:53 am 02:53 Clear 74 23.3 24 -4.4 15 15 SSW 9 15 29.72 1006 10 16.0934 0 0
3:53 am 03:53 Clear 71 21.7 25 -3.9 18 18 SSW 9 15 29.72 1007 10 16.0934 0 0
4:53 am 04:53 Clear 70 21.1 25 -3.9 18 18 SSW 7 11 29.72 1007 10 16.0934 0 0
5:53 am 05:53 Sunny 69 20.6 25 -3.9 19 19 SSE 5 7 29.72 1006 10 16.0934 0 0
6:53 am 06:53 Sunny 68 20 27 -2.8 21 21 SE 9 15 29.74 1007 10 16.0934 0 0
7:53 am 07:53 Sunny 72 22.2 26 -3.3 18 18 S 15 24 29.75 1008 10 16.0934 0 0
8:53 am 08:53 Sunny 76 24.4 26 -3.3 16 16 S 16 26 29.76 1008 10 16.0934 0 0
9:53 am 09:53 Sunny 78 25.6 26 -3.3 15 15 S 14 22 29.76 1008 10 16.0934 0 0
10:53 am 10:53 Sunny 80 26.7 26 -3.3 14 14 S 15 24 29.76 1008 10 16.0934 0 0
11:53 am 11:53 Sunny 83 28.3 25 -3.9 12 12 SW 21 33 29.73 1007 10 16.0934 0 0
12:53 pm 12:53 Sunny 83 28.3 24 -4.4 11 11 S 14 22 29.71 1006 10 16.0934 0 0
1:25 pm 13:25 Sunny 85 29.4 22 -5.6 10 10 SW 18 30 29.56 1001 10 16.0934 0 0
1:53 pm 13:53 Sunny 85 29.4 22 -5.6 10 10 WSW 9 15 29.7 1006 10 16.0934 0 0
2:53 pm 14:53 Sunny 87 30.6 21 -6.1 9 9 WSW 18 30 29.67 1005 10 16.0934 0 0
3:53 pm 15:53 Sunny 86 30 13 -10.6 6 6 SW 16 26 29.67 1005 10 16.0934 0 0
4:53 pm 16:53 Sunny 86 30 9 -12.8 5 5 WSW 18 30 29.66 1004 10 16.0934 0 0
5:53 pm 17:53 Sunny 84 28.9 12 -11.1 6 6 W 16 26 29.65 1004 10 16.0934 0 0
6:53 pm 18:53 Sunny 83 28.3 13 -10.6 7 7 WSW 13 20 29.66 1004 10 16.0934 0 0
7:53 pm 19:53 Clear 81 27.2 13 -10.6 7 7 SSW 16 26 29.67 1005 10 16.0934 0 0
8:53 pm 20:53 Clear 80 26.7 12 -11.1 7 7 SSW 21 33 29.7 1006 10 16.0934 0 0
9:53 pm 21:53 Clear 78 25.6 17 -8.3 10 10 S 18 30 29.72 1007 10 16.0934 0 0
10:53 pm 22:53 Clear 76 24.4 18 -7.8 11 11 SSW 13 20 29.74 1007 10 16.0934 0 0
11:53 pm 23:53 Clear 73 22.8 25 -3.9 17 17 SSW 9 15 29.75 1007 10 16.0934 0 0

Powered by AerisWeather